Flag for U.S.A. Weather past 2 weeks in Lynchburg, Virginia, U.S.A.

Now
65 °F

Passing clouds.


Feels Like: 65 °F
Forecast: 38 / 63 °F
Wind: 15 mph from Southwest

Location: Lynchburg Regional Airport

Current Time: Oct 20, 2014 at 2:39:56 PM

Latest Report: Oct 20, 2014 at 1:54 PM


Visibility: 10 mi

Pressure: 30.01 "Hg

Humidity: 52%

Dew point: 47 °F

Location of LynchburgLocation

Historic Weather in Lynchburg — Graph

°F

Lynchburg temperature yesterday

Maximum temperature yesterday: 62 °F (at 3:54 PM)
Minimum temperature yesterday: 40 °F (at 6:54 AM)
Average temperature yesterday: 51 °F

Past Weeks' High & Low Weather Summary

 TemperatureHumidityPressure
High76 °F (Oct 8, 2:54 PM)100% (Oct 7, 5:54 AM)30.29 "Hg (Oct 7, 5:54 AM)
Low35 °F (Oct 20, 5:54 AM)34% (Oct 19, 3:54 PM)29.71 "Hg (Oct 18, 3:54 AM)
Average57 °F84%30.01 "Hg
* Reported Oct 5 12:54 PM — Oct 20 12:54 PM, Lynchburg, Weather by CustomWeather, © 2014

Note: Actual official high and low records may vary slightly from our data, if they occured in-between our weather recording intervals... More about our weather records

Advertising

Lynchburg weather history for previous 24 hours

 ConditionsComfort  
Time TempWeatherWind HumidityBarometerVisibility
12:54 PM
Oct 20
63 °FSunny.15 mph56%30.05 "Hg10 mi
11:54 AM59 °FSunny.15 mph62%30.08 "Hg10 mi
10:54 AM55 °FSunny.8 mph67%30.12 "Hg10 mi
9:54 AM49 °FSunny.8 mph80%30.13 "Hg10 mi
8:54 AM40 °FSunny.No wind100%30.14 "Hg10 mi
7:54 AM35 °FClear.No wind100%30.14 "Hg10 mi
6:54 AM35 °FClear.No wind100%30.13 "Hg10 mi
5:54 AM35 °FClear.No wind100%30.12 "Hg10 mi
4:54 AM36 °FClear.No wind100%30.10 "Hg10 mi
3:54 AM36 °FClear.No wind100%30.11 "Hg10 mi
2:54 AM37 °FClear.No wind96%30.11 "Hg10 mi
1:54 AM36 °FClear.3 mph100%30.13 "Hg10 mi
12:54 AM37 °FClear.No wind100%30.12 "Hg10 mi
10:54 PM
Oct 19
40 °FClear.No wind97%30.13 "Hg10 mi
9:54 PM40 °FClear.No wind97%30.13 "Hg10 mi
8:54 PM44 °FClear.No wind89%30.13 "Hg10 mi
7:54 PM44 °FClear.No wind89%30.13 "Hg10 mi
6:54 PM49 °FSunny.No wind77%30.09 "Hg10 mi
5:54 PM55 °FSunny.No wind55%30.07 "Hg10 mi
4:54 PM61 °FSunny.6 mph35%30.05 "Hg10 mi
3:54 PM62 °FSunny.5 mph34%30.06 "Hg10 mi
2:54 PM61 °FSunny.N/A35%30.07 "Hg10 mi
Weather by CustomWeather, © 2014

See weather overviewHow to use our weather pages